Regional Weather Roundup
Issued by NWS

Home | Current Version | Previous Version | Graphics & Text | Print | Product List | Glossary On
Versions: 1 2 3 4 5 6 7 8 9 10 11 12 13 14 15 16 17 18 19 20 21 22 23 24 25 26 27 28 29 30 31 32 33 34 35 36 37 38 39 40 41 42 43 44 45 46 47 48 49 50
000
ASUS45 KBOI 201410
RWRID
WEATHER ROUNDUP FOR IDAHO
NATIONAL WEATHER SERVICE BOISE ID
700 AM MST SAT DEC 20 2014

NOTE: "FAIR" INDICATES FEW OR NO CLOUDS BELOW 12000 FEET
WITH NO SIGNIFICANT WEATHER AND/OR OBSTRUCTIONS TO VISIBILITY

IDZ012-014-201500-
SOUTHWEST IDAHO


CITY           SKY/WX    TMP DP  RH WIND       PRES   REMARKS
BOISE          LGT RAIN  42  35  76 SE6       30.01R
CALDWELL       CLOUDY    39  32  75 E6        30.03S WCI  35
MOUNTAIN HOME  LGT RAIN  37  35  92 E12       30.03R WCI  29
$$

IDZ016-017-201500-
SOUTHCENTRAL IDAHO


CITY           SKY/WX    TMP DP  RH WIND       PRES   REMARKS
BURLEY         CLOUDY    38  31  76 S14       30.04F WCI  30
JEROME         CLOUDY    35  32  88 E7        30.05S WCI  29
TWIN FALLS     CLOUDY    39  30  70 S12       30.03F WCI  32
$$

IDZ019>023-201500-
SOUTHEAST IDAHO


CITY           SKY/WX    TMP DP  RH WIND       PRES   REMARKS
IDAHO FALLS    CLOUDY    34  33  96 S7        30.06S WCI  28
POCATELLO      CLOUDY    37  32  82 S8        30.06S WCI  31
REXBURG        CLOUDY    33  32  96 SW5       30.06S WCI  29
$$

IDZ006-010-011-018-031-032-201500-
CENTRAL IDAHO MOUNTAINS


CITY           SKY/WX    TMP DP  RH WIND       PRES   REMARKS
MCCALL         LGT SNOW  31  30  96 SE9       29.93F VSB 1   WCI  23
HAILEY         LGT SNOW  28  27  93 CALM      30.05S
STANLEY          N/A     21  17  84 CALM      29.98S
SALMON         CLOUDY    27  25  93 CALM      29.99F VSB 1
CHALLIS        CLOUDY    24  22  91 E3        29.99S
$$

IDZ002-004-006-007-026-201500-
NORTHERN IDAHO


CITY           SKY/WX    TMP DP  RH WIND       PRES   REMARKS
LEWISTON       CLOUDY    37  36  96 E6        29.92F WCI  32
LOWELL           N/A     36  34  92 N3        30.01F
COEUR D`ALENE  CLOUDY    32  28  86 CALM      29.89F
MULLAN PASS    FOG       25  23  92 VRB7      29.84F VSB 1   WCI  17
$$


USA.gov is the U.S. government's official web portal to all federal, state and local government web resources and services.